Location: Leimbach
(47.5611°N, 9.1881°E)
Time: 07:30:29
(UTC+00:00)

Cosmos 2184 Rocket - Pass Details

Date: 07 June 2020
Orbit: 960 x 1001 km, 82.9° (Epoch: 07 July)

Event Time Altitude Azimuth Distance (km) Brightness Sun altitude
Exits shadow 01:16:27 22° 198° (SSW) 1,984 5.0 -15.1°
Maximum altitude 01:20:39 74° 280° (W) 1,001 4.0 -14.8°
Drops below altitude 10° 01:26:51 10° 6° (N) 2,709 7.4 -14.3°
Sets 01:29:23 0° 8° (N) 3,663 8.4 -14.1°
